This is the latest recevied weather packets stored in our database for station/object W4ZHA. If no packets are shown the sender has not sent any weather packets the latest 10 day(s).
| Time | Temp. | Humidity | Pressure | Rain* | Wind** | Luminosity | Snow |
|---|---|---|---|---|---|---|---|
| 1777819577 | 13.89° C | 63% | 1022.4 hPa | 0 mm | - | 46 W/m² | - |
| 1777819275 | 13.89° C | 64% | 1022.4 hPa | 0 mm | - | 60 W/m² | - |
| 1777818971 | 13.33° C | 65% | 1022.4 hPa | 0 mm | - | 133 W/m² | - |
| 1777818668 | 12.78° C | 65% | 1022.4 hPa | 0 mm | - | 121 W/m² | - |
| 1777818365 | 12.78° C | 63% | 1022.8 hPa | 0 mm | - | 42 W/m² | - |
| 1777818062 | 12.78° C | 63% | 1022.8 hPa | 0 mm | - | 42 W/m² | - |
| 1777817758 | 12.78° C | 63% | 1022.8 hPa | 0 mm | - | 41 W/m² | - |
| 1777817456 | 12.78° C | 63% | 1022.4 hPa | 0 mm | - | 94 W/m² | - |
| 1777817151 | 12.78° C | 63% | 1022.4 hPa | 0 mm | - | 67 W/m² | - |
| 1777816850 | 12.78° C | 63% | 1022.4 hPa | 0 mm | - | 95 W/m² | - |
| 1777816547 | 12.22° C | 63% | 1022.4 hPa | 0 mm | - | 84 W/m² | - |
| 1777816244 | 12.78° C | 64% | 1022.8 hPa | 0 mm | - | 48 W/m² | - |
| 1777815941 | 12.22° C | 64% | 1022.4 hPa | 0 mm | - | 139 W/m² | - |
| 1777815638 | 11.67° C | 66% | 1022.4 hPa | 0 mm | - | 43 W/m² | - |
| 1777815336 | 11.67° C | 67% | 1022.4 hPa | 0 mm | - | 67 W/m² | - |
| 1777815033 | 11.67° C | 66% | 1022.8 hPa | 0 mm | - | 49 W/m² | - |
| 1777814729 | 11.67° C | 66% | 1022.8 hPa | 0 mm | - | 36 W/m² | - |
| 1777814425 | 10.56° C | 66% | 1022.4 hPa | 0 mm | - | 36 W/m² | - |
| 1777814123 | 11.11° C | 65% | 1022.4 hPa | 0 mm | - | 90 W/m² | - |
| 1777813820 | 10.56° C | 66% | 1022.4 hPa | 0 mm | - | 99 W/m² | - |
| 1777813517 | 10.56° C | 67% | 1022.4 hPa | 0 mm | - | 71 W/m² | - |
| 1777813215 | 10.56° C | 66% | 1022.4 hPa | 0 mm | - | 37 W/m² | - |
| 1777812912 | 10.56° C | 66% | 1022.4 hPa | 0 mm | - | 36 W/m² | - |
| 1777812609 | 10° C | 67% | 1022.4 hPa | 0 mm | - | 33 W/m² | - |
| 1777812306 | 10.56° C | 67% | 1022.4 hPa | 0 mm | - | 31 W/m² | - |
* Rain latest hour (hover to see other rain measurements)
** Current wind speed in m/s (hover to see current wind gust speed)